Change the Weather History Date:

Saturday, March 30, 2013

  Actual Average Record
Temperature  
Mean Temperature 64 °F 51 °F  
Max Temperature 76 °F 63 °F 83 °F (1917)
Min Temperature 51 °F 39 °F 18 °F (1964)
Degree Days  
Heating Degree Days 1 14  
Month to date heating degree days 657 562  
Since 1 July heating degree days 3928 4202  
Cooling Degree Days 0 0  
Month to date cooling degree days 0 0  
Year to date cooling degree days 0 0  
Growing Degree Days 14 (Base 50)    
Moisture  
Dew Point 54 °F    
Average Humidity 75    
Maximum Humidity 100    
Minimum Humidity 49    
Precipitation  
Precipitation 0.47 in 0.10 in 1.88 in (1953)
Month to date precipitation 2.09 2.59  
Year to date precipitation 5.11 4.60  
Snow  
Snow 0.00 in 0.00 in 5.50 in (1926)
Month to date snowfall 5.3 2.2  
Since 1 July snowfall 29.8 14.6  
Snow Depth 0.00 in    
Sea Level Pressure  
Sea Level Pressure 29.95 in    
Wind  
Wind Speed 9 mph (South)    
Max Wind Speed 21 mph    
Max Gust Speed 37 mph    
Visibility 8 miles    
Events Rain , Thunderstorm    
T = Trace of Precipitation, MM = Missing Value Source: NWS Daily Summary

Daily Weather History Graph

Daily Weather History Graph

Search for Another Location

Airport or City:

Trip Planner

Search our weather history database for the weather conditions in past years. The results will help you decide how hot, cold, wet, or windy it might be!

Date:

Astronomy

Mar. 30, 2013 Rise Set
Actual Time 7:17 AM CDT 7:51 PM CDT
Civil Twilight 6:51 AM CDT 8:17 PM CDT
Nautical Twilight 6:20 AM CDT 8:48 PM CDT
Astronomical Twilight 5:48 AM CDT 9:20 PM CDT
Moon 11:54 PM CDT (3/30) 9:18 AM CDT (3/30)
Length of Visible Light 13h 26m
Length of Day
12h 33m
Waning Gibbous, 86% of the Moon is Illuminated
Mar 30
Waning Gibbous
Apr 2
Last Quarter
Apr 10
New
Apr 18
First Quarter
Apr 25
Full

Hourly Weather History & Observations

Time (CDT) Temp. Dew Point Humidity Pressure Visibility Wind Dir Wind Speed Gust Speed Precip Events Conditions
12:15 AM 57.2 °F 53.6 °F 88% 30.02 in 8.0 mi SE 10.4 mph - N/A   Overcast
12:53 AM 57.0 °F 54.0 °F 89% 30.00 in 7.0 mi SE 10.4 mph - N/A   Mostly Cloudy
1:53 AM 57.0 °F 54.0 °F 89% 29.99 in 6.0 mi SE 9.2 mph - N/A   Overcast
2:53 AM 57.0 °F 55.0 °F 93% 29.97 in 7.0 mi SSE 9.2 mph - 0.00 in Rain Light Rain
3:53 AM 57.0 °F 55.0 °F 93% 29.94 in 9.0 mi SSE 12.7 mph - 0.00 in   Mostly Cloudy
4:46 AM 57.2 °F 55.4 °F 94% 30.00 in 7.0 mi SE 3.5 mph - 0.00 in Rain , Thunderstorm Light Thunderstorms and Rain
4:53 AM 57.0 °F 55.0 °F 93% 30.00 in 7.0 mi North 17.3 mph 24.2 mph 0.00 in Rain , Thunderstorm Light Thunderstorms and Rain
4:57 AM 57.2 °F 53.6 °F 88% 30.02 in 3.0 mi North 12.7 mph 24.2 mph 0.04 in Rain , Thunderstorm Thunderstorms with Small Hail
5:06 AM 55.4 °F 53.6 °F 94% 30.02 in 1.8 mi North 12.7 mph 20.7 mph 0.21 in Rain , Thunderstorm Heavy Thunderstorms with Small Hail
5:19 AM 53.6 °F 51.8 °F 94% 29.98 in 3.0 mi ENE 8.1 mph - 0.47 in Rain , Thunderstorm Thunderstorms with Small Hail
5:22 AM 53.6 °F 51.8 °F 94% 29.97 in 6.0 mi SE 9.2 mph - 0.47 in Rain , Thunderstorm Light Thunderstorms and Rain
5:44 AM 53.6 °F 51.8 °F 94% 29.96 in 10.0 mi South 18.4 mph - 0.47 in Rain Light Rain
5:53 AM 55.0 °F 53.1 °F 93% 29.94 in 10.0 mi South 18.4 mph - 0.47 in   Overcast
6:53 AM 55.0 °F 53.6 °F 95% 29.97 in 10.0 mi Calm Calm - 0.00 in   Scattered Clouds
7:53 AM 53.1 °F 53.1 °F 100% 29.96 in 10.0 mi SSW 6.9 mph - N/A   Mostly Cloudy
8:18 AM 55.4 °F 55.4 °F 100% 29.98 in 8.0 mi South 8.1 mph - N/A   Mostly Cloudy
8:53 AM 55.9 °F 55.9 °F 100% 29.97 in 10.0 mi South 11.5 mph 29.9 mph N/A   Overcast
9:29 AM 57.2 °F 57.2 °F 100% 29.98 in 10.0 mi South 13.8 mph - N/A   Overcast
9:53 AM 59.0 °F 57.9 °F 96% 29.96 in 5.0 mi South 13.8 mph 20.7 mph N/A   Overcast
10:53 AM 60.1 °F 57.0 °F 90% 29.95 in 5.0 mi South 11.5 mph - N/A   Overcast
11:53 AM 61.0 °F 57.0 °F 87% 29.95 in 5.0 mi SSW 15.0 mph - N/A   Overcast
12:22 PM 62.6 °F 57.2 °F 82% 29.96 in 7.0 mi SW 15.0 mph - N/A   Overcast
12:53 PM 64.0 °F 57.9 °F 80% 29.94 in 10.0 mi SW 10.4 mph - N/A   Overcast
1:53 PM 68.0 °F 55.9 °F 65% 29.91 in 10.0 mi SW 8.1 mph - N/A   Mostly Cloudy
2:08 PM 68.0 °F 55.4 °F 64% 29.92 in 10.0 mi WSW 9.2 mph - N/A   Partly Cloudy
2:53 PM 70.0 °F 55.9 °F 61% 29.88 in 10.0 mi West 8.1 mph - N/A   Partly Cloudy
3:53 PM 72.0 °F 55.0 °F 55% 29.86 in 10.0 mi Variable 4.6 mph - N/A   Scattered Clouds
4:53 PM 73.9 °F 55.0 °F 52% 29.85 in 10.0 mi WSW 4.6 mph - N/A   Mostly Cloudy
5:53 PM 73.9 °F 54.0 °F 50% 29.86 in 10.0 mi North 10.4 mph 19.6 mph N/A   Scattered Clouds
6:53 PM 70.0 °F 53.1 °F 55% 29.88 in 10.0 mi North 9.2 mph - N/A   Partly Cloudy
7:53 PM 66.0 °F 53.1 °F 63% 29.89 in 10.0 mi North 6.9 mph - N/A   Clear
8:53 PM 64.9 °F 52.0 °F 63% 29.89 in 10.0 mi North 4.6 mph - N/A   Partly Cloudy
9:53 PM 61.0 °F 51.1 °F 70% 29.91 in 10.0 mi NE 4.6 mph - N/A   Partly Cloudy
10:53 PM 57.0 °F 51.1 °F 81% 29.93 in 10.0 mi North 3.5 mph - N/A   Partly Cloudy
11:53 PM 60.1 °F 52.0 °F 75% 29.94 in 10.0 mi North 5.8 mph - N/A   Mostly Cloudy